Date String (YYYY-MM-DD hh:mm:ss) UTC,Instrument flags,Ambient pressure (hPa),Sample flow (lpm),Bypass flow (lpm),Sample temperature (°C),Ambient temperature (°C),ASC tube jacket temperature (°C),LED temperature (°C),Box temperature (°C),Sample RH (%),Span deviation,Mass concentration (μg/m³),Mass concentration (μg/m³),Mass concentration (μg/m³)
DateTimeUTC,F1_M11,P_M11,Q1_M11,Q2_M11,T1_M11,T2_M11,T3_M11,T4_M11,T5_M11,U1_M11,ZSPAN_M11,X0_M11,X2_M11,X1_M11
2021-11-13 07:00:00,,0829.1,5.01,0.00,26.4,25.6,00.0,35.4,28.2,14.3,0000.0,0001.35,0000.72,0000.55
2021-11-13 07:01:00,,0829.1,5.01,0.00,26.4,25.6,00.0,35.4,28.2,14.2,0000.0,0001.09,0000.70,0000.54
2021-11-13 07:02:00,,0829.1,4.99,0.00,26.4,25.6,00.0,35.4,28.2,14.3,0000.0,0000.99,0000.66,0000.54
2021-11-13 07:03:00,,0829.1,5.00,0.00,26.4,25.6,00.0,35.4,28.2,14.3,0000.0,0000.98,0000.65,0000.53
2021-11-13 07:04:00,,0829.1,4.99,0.00,26.4,25.6,00.0,35.4,28.2,14.3,0000.0,0000.92,0000.63,0000.52
2021-11-13 07:05:00,,0829.1,5.01,0.00,26.4,25.6,00.0,35.4,28.2,14.4,0000.0,0000.87,0000.60,0000.51
2021-11-13 07:06:00,,0829.0,4.99,0.00,26.4,25.6,00.0,35.4,28.1,14.4,0000.0,0000.83,0000.59,0000.51
2021-11-13 07:07:00,,0829.0,4.99,0.00,26.4,25.5,00.0,35.4,28.2,14.5,0000.0,0000.87,0000.59,0000.50
2021-11-13 07:08:00,,0828.9,5.01,0.00,26.4,25.5,00.0,35.4,28.1,14.5,0000.0,0000.93,0000.60,0000.49
2021-11-13 07:09:00,,0829.0,4.98,0.00,26.4,25.5,00.0,35.4,28.1,14.4,0000.0,0000.94,0000.60,0000.49
2021-11-13 07:10:00,,0828.9,5.01,0.00,26.4,25.5,00.0,35.4,28.1,14.3,0000.0,0000.92,0000.59,0000.48
2021-11-13 07:11:00,,0828.8,5.00,0.00,26.4,25.5,00.0,35.4,28.1,14.3,0000.0,0001.17,0000.59,0000.47
2021-11-13 07:12:00,,0828.9,5.00,0.00,26.4,25.5,00.0,35.4,28.1,14.2,0000.0,0001.80,0000.59,0000.47
2021-11-13 07:13:00,,0829.1,5.00,0.00,26.4,25.5,00.0,35.4,28.1,14.1,0000.0,0001.77,0000.56,0000.45
2021-11-13 07:14:00,,0829.2,5.00,0.00,26.4,25.5,00.0,35.4,28.1,14.3,0000.0,0001.75,0000.57,0000.45
2021-11-13 07:15:00,,0829.4,5.00,0.00,26.4,25.5,00.0,35.4,28.2,14.4,0000.0,0001.79,0000.58,0000.44
2021-11-13 07:16:00,,0829.2,5.00,0.00,26.4,25.5,00.0,35.4,28.2,14.4,0000.0,0001.85,0000.60,0000.43
2021-11-13 07:17:00,,0829.1,5.00,0.00,26.4,25.5,00.0,35.4,28.2,14.4,0000.0,0001.94,0000.62,0000.43
2021-11-13 07:18:00,,0829.3,4.99,0.00,26.4,25.5,00.0,35.4,28.2,14.6,0000.0,0001.98,0000.62,0000.42
2021-11-13 07:19:00,,0829.0,5.00,0.00,26.3,25.5,00.0,35.4,28.1,14.6,0000.0,0001.91,0000.60,0000.41
2021-11-13 07:20:00,,0829.4,5.00,0.00,26.3,25.5,00.0,35.4,28.1,14.6,0000.0,0003.45,0000.59,0000.41
2021-11-13 07:21:00,,0829.0,5.00,0.00,26.3,25.5,00.0,35.4,28.0,14.7,0000.0,0003.52,0000.59,0000.40
2021-11-13 07:22:00,,0828.7,4.99,0.00,26.3,25.4,00.0,35.4,28.0,14.7,0000.0,0003.24,0000.56,0000.40
2021-11-13 07:23:00,,0829.1,5.00,0.00,26.3,25.4,00.0,35.4,28.1,14.6,0000.0,0002.58,0000.56,0000.39
2021-11-13 07:24:00,,0829.0,5.00,0.00,26.3,25.4,00.0,35.4,28.1,14.6,0000.0,0002.62,0000.58,0000.38
2021-11-13 07:25:00,,0828.7,5.00,0.00,26.3,25.4,00.0,35.4,28.0,14.5,0000.0,0002.58,0000.55,0000.38
2021-11-13 07:26:00,,0828.7,4.99,0.00,26.3,25.4,00.0,35.3,28.0,14.1,0000.0,0002.58,0000.53,0000.37
2021-11-13 07:27:00,,0828.9,4.99,0.00,26.3,25.4,00.0,35.3,28.0,14.3,0000.0,0002.53,0000.52,0000.37
2021-11-13 07:28:00,,0829.1,5.00,0.00,26.3,25.4,00.0,35.3,28.0,14.4,0000.0,0002.47,0000.51,0000.37
2021-11-13 07:29:00,,0828.9,5.00,0.00,26.3,25.4,00.0,35.3,28.0,14.6,0000.0,0002.40,0000.50,0000.37
2021-11-13 07:30:00,,0828.8,5.01,0.00,26.3,25.3,00.0,35.3,28.0,14.6,0000.0,0002.35,0000.51,0000.37
2021-11-13 07:31:00,,0829.1,5.01,0.00,26.3,25.4,00.0,35.3,28.0,14.3,0000.0,0000.75,0000.51,0000.37
2021-11-13 07:32:00,,0829.1,4.98,0.00,26.2,25.4,00.0,35.3,28.0,14.4,0000.0,0000.75,0000.50,0000.37
2021-11-13 07:33:00,,0829.0,5.02,0.00,26.2,25.4,00.0,35.3,28.0,14.6,0000.0,0000.75,0000.50,0000.37
2021-11-13 07:34:00,,0829.0,4.99,0.00,26.3,25.4,00.0,35.3,28.0,14.6,0000.0,0000.72,0000.49,0000.37
2021-11-13 07:35:00,,0829.1,5.00,0.00,26.3,25.4,00.0,35.3,28.0,14.5,0000.0,0000.70,0000.49,0000.37
2021-11-13 07:36:00,,0829.0,5.01,0.00,26.3,25.4,00.0,35.3,28.0,14.4,0000.0,0001.87,0000.49,0000.38
2021-11-13 07:37:00,,0829.0,5.01,0.00,26.3,25.4,00.0,35.3,28.0,14.4,0000.0,0001.96,0000.50,0000.38
2021-11-13 07:38:00,,0828.9,4.99,0.00,26.3,25.5,00.0,35.3,28.0,14.4,0000.0,0002.02,0000.52,0000.38
2021-11-13 07:39:00,,0828.9,4.99,0.00,26.3,25.5,00.0,35.3,28.1,14.4,0000.0,0002.00,0000.51,0000.38
2021-11-13 07:40:00,,0828.9,5.01,0.00,26.3,25.4,00.0,35.3,28.1,14.5,0000.0,0002.03,0000.52,0000.39
2021-11-13 07:41:00,,0829.1,5.00,0.00,26.3,25.4,00.0,35.3,28.0,14.5,0000.0,0002.06,0000.54,0000.38
2021-11-13 07:42:00,,0829.0,4.99,0.00,26.2,25.4,00.0,35.3,28.0,14.7,0000.0,0002.07,0000.54,0000.38
2021-11-13 07:43:00,,0829.1,5.02,0.00,26.2,25.4,00.0,35.3,28.0,14.6,0000.0,0002.07,0000.55,0000.39
2021-11-13 07:44:00,,0828.5,5.00,0.00,26.2,25.4,00.0,35.3,28.0,14.6,0000.0,0002.24,0000.61,0000.40
2021-11-13 07:45:00,,0828.5,4.99,0.00,26.3,25.4,00.0,35.3,28.0,14.6,0000.0,0002.28,0000.63,0000.39
2021-11-13 07:46:00,,0828.5,4.99,0.00,26.3,25.5,00.0,35.3,28.1,14.6,0000.0,0002.25,0000.62,0000.40
2021-11-13 07:47:00,,0828.5,5.00,0.00,26.3,25.5,00.0,35.3,28.1,14.5,0000.0,0001.04,0000.62,0000.40
2021-11-13 07:48:00,,0828.5,5.00,0.00,26.3,25.4,00.0,35.3,28.1,14.4,0000.0,0000.99,0000.61,0000.40
2021-11-13 07:49:00,,0828.5,5.00,0.00,26.2,25.4,00.0,35.3,28.0,14.4,0000.0,0001.00,0000.62,0000.40
2021-11-13 07:50:00,,0828.5,5.00,0.00,26.2,25.4,00.0,35.3,28.0,14.5,0000.0,0001.01,0000.62,0000.40
2021-11-13 07:51:00,,0828.8,5.00,0.00,26.2,25.3,00.0,35.3,28.0,14.7,0000.0,0000.95,0000.59,0000.39
2021-11-13 07:52:00,,0828.7,5.00,0.00,26.2,25.3,00.0,35.3,28.0,14.8,0000.0,0000.90,0000.56,0000.39
2021-11-13 07:53:00,,0828.8,5.00,0.00,26.2,25.3,00.0,35.3,27.9,14.8,0000.0,0000.89,0000.56,0000.40
2021-11-13 07:54:00,,0828.6,5.00,0.00,26.1,25.3,00.0,35.2,27.9,14.9,0000.0,0000.89,0000.55,0000.39
2021-11-13 07:55:00,,0828.6,5.00,0.00,26.1,25.3,00.0,35.2,27.9,14.9,0000.0,0000.74,0000.50,0000.39
2021-11-13 07:56:00,,0828.5,5.00,0.00,26.1,25.3,00.0,35.2,27.9,14.7,0000.0,0000.73,0000.49,0000.40
2021-11-13 07:57:00,,0828.5,5.00,0.00,26.1,25.3,00.0,35.2,27.9,14.6,0000.0,0000.84,0000.53,0000.41
2021-11-13 07:58:00,,0828.5,4.99,0.00,26.1,25.3,00.0,35.2,27.9,14.6,0000.0,0001.04,0000.59,0000.43
2021-11-13 07:59:00,,0828.5,5.00,0.00,26.1,25.3,00.0,35.2,27.9,14.6,0000.0,0001.21,0000.60,0000.44
